| time (UTC) | temp F | wind direction | speed MPH | gust MPH | rain 1hr in | rain 24hr in | rain mn in | humidity % | barometer mb |
| 20260902000541 | 75 | 0 | 0.0 | 0.0 | 0.00 | 0.18 | 0.18 | 64 | 1021.2 |
| 20260901235540 | 73 | 0 | 0.0 | 1.0 | 0.00 | 0.18 | 0.18 | 71 | 1021.2 |
| 20260901235039 | 72 | 0 | 0.0 | 1.0 | 0.00 | 0.18 | 0.18 | 73 | 1021.2 |
| 20260901234557 | 71 | 0 | 0.0 | 0.0 | 0.00 | 0.18 | 0.18 | 73 | 1021.2 |
| 20260901234041 | 71 | 0 | 0.0 | 0.0 | 0.01 | 0.18 | 0.18 | 76 | 1021.2 |
| 20260901233539 | 71 | 0 | 0.0 | 0.0 | 0.01 | 0.18 | 0.18 | 74 | 1021.2 |
| 20260901233101 | 71 | 0 | 0.0 | 0.0 | 0.01 | 0.18 | 0.18 | 75 | 1021.2 |
| 20260901232540 | 70 | 0 | 0.0 | 0.0 | 0.01 | 0.18 | 0.18 | 75 | 1021.2 |
| 20260901232040 | 70 | 0 | 0.0 | 2.0 | 0.01 | 0.18 | 0.18 | 73 | 1021.2 |
| 20260901231558 | 69 | 0 | 0.0 | 3.0 | 0.01 | 0.18 | 0.18 | 74 | 1021.2 |
| 20260901231039 | 69 | 0 | 0.0 | 3.0 | 0.01 | 0.18 | 0.18 | 74 | 1021.2 |
| 20260901230540 | 69 | 267 | 0.0 | 3.0 | 0.01 | 0.18 | 0.18 | 75 | 1021.2 |
| 20260901230106 | 69 | 0 | 0.0 | 3.0 | 0.01 | 0.18 | 0.18 | 75 | 1021.2 |
| 20260901225540 | 70 | 0 | 0.0 | 3.0 | 0.01 | 0.18 | 0.18 | 72 | 1021.2 |
| 20260901225040 | 71 | 0 | 0.0 | 3.0 | 0.01 | 0.18 | 0.18 | 70 | 1021.2 |
| 20260901224553 | 72 | 0 | 0.0 | 3.0 | 0.01 | 0.18 | 0.18 | 65 | 1021.2 |
| 20260901224038 | 72 | 0 | 0.0 | 1.0 | 0.00 | 0.17 | 0.17 | 64 | 1021.2 |
| 20260901223539 | 72 | 0 | 0.0 | 0.0 | 0.00 | 0.17 | 0.17 | 64 | 1021.2 |
| 20260901223106 | 72 | 0 | 0.0 | 0.0 | 0.00 | 0.17 | 0.17 | 65 | 1021.2 |
| 20260901222539 | 72 | 0 | 0.0 | 0.0 | 0.00 | 0.17 | 0.17 | 67 | 1021.2 |
| 20260901222041 | 72 | 0 | 0.0 | 0.0 | 0.00 | 0.17 | 0.17 | 69 | 1021.2 |
| 20260901221557 | 72 | 0 | 0.0 | 0.0 | 0.00 | 0.17 | 0.17 | 70 | 1021.2 |
| 20260901221039 | 72 | 0 | 0.0 | 0.0 | 0.00 | 0.17 | 0.17 | 68 | 1021.2 |
| 20260901220540 | 72 | 0 | 0.0 | 0.0 | 0.00 | 0.17 | 0.17 | 68 | 1021.2 |
| 20260901220111 | 73 | 0 | 0.0 | 0.0 | 0.00 | 0.17 | 0.17 | 68 | 1021.2 |
| 20260901215539 | 73 | 0 | 0.0 | 0.0 | 0.00 | 0.17 | 0.17 | 68 | 1021.2 |
| 20260901215043 | 73 | 0 | 0.0 | 4.0 | 0.00 | 0.17 | 0.17 | 66 | 1021.2 |
| 20260901214556 | 74 | 0 | 0.0 | 4.0 | 0.00 | 0.17 | 0.17 | 64 | 1021.2 |
| 20260901214040 | 75 | 288 | 0.0 | 2.0 | 0.00 | 0.17 | 0.17 | 58 | 1021.2 |
| 20260901213539 | 77 | 0 | 0.0 | 0.0 | 0.00 | 0.17 | 0.17 | 58 | 1021.2 |
| 20260901213102 | 76 | 0 | 0.0 | 0.0 | 0.00 | 0.17 | 0.17 | 58 | 1021.2 |
| 20260901212539 | 76 | 0 | 0.0 | 0.0 | 0.00 | 0.17 | 0.17 | 61 | 1021.2 |
| 20260901212040 | 76 | 0 | 0.0 | 0.0 | 0.00 | 0.17 | 0.17 | 65 | 1021.2 |
| 20260901211554 | 77 | 0 | 0.0 | 0.0 | 0.00 | 0.17 | 0.17 | 64 | 1021.2 |
| 20260901211041 | 77 | 0 | 0.0 | 0.0 | 0.00 | 0.17 | 0.17 | 60 | 1021.2 |
| 20260901210539 | 76 | 0 | 0.0 | 0.0 | 0.00 | 0.17 | 0.17 | 58 | 1021.2 |
| 20260901210100 | 76 | 0 | 0.0 | 0.0 | 0.00 | 0.17 | 0.17 | 62 | 1021.2 |
| 20260901205539 | 76 | 0 | 0.0 | 0.0 | 0.00 | 0.17 | 0.17 | 58 | 1021.2 |
| 20260901205040 | 75 | 0 | 0.0 | 0.0 | 0.00 | 0.17 | 0.17 | 59 | 1021.2 |
| 20260901204554 | 75 | 0 | 0.0 | 0.0 | 0.00 | 0.17 | 0.17 | 58 | 1021.2 |
| 20260901204044 | 75 | 0 | 0.0 | 0.0 | 0.00 | 0.17 | 0.17 | 59 | 1021.2 |
| 20260901203540 | 74 | 0 | 0.0 | 0.0 | 0.00 | 0.17 | 0.17 | 61 | 1021.2 |
| 20260901203055 | 73 | 0 | 0.0 | 0.0 | 0.00 | 0.17 | 0.17 | 63 | 1021.2 |
| 20260901202538 | 72 | 0 | 0.0 | 0.0 | 0.00 | 0.17 | 0.17 | 66 | 1021.2 |
| 20260901202038 | 71 | 0 | 0.0 | 0.0 | 0.00 | 0.17 | 0.17 | 66 | 1021.2 |
| 20260901201603 | 71 | 0 | 0.0 | 0.0 | 0.00 | 0.17 | 0.17 | 67 | 1021.2 |
| 20260901201040 | 70 | 0 | 0.0 | 0.0 | 0.00 | 0.17 | 0.17 | 67 | 1021.2 |
| 20260901200541 | 69 | 0 | 0.0 | 0.0 | 0.00 | 0.17 | 0.17 | 71 | 1021.2 |
| 20260901200058 | 69 | 0 | 0.0 | 0.0 | 0.02 | 0.17 | 0.17 | 73 | 1021.2 |
| 20260901195539 | 68 | 0 | 0.0 | 0.0 | 0.06 | 0.17 | 0.17 | 73 | 1021.2 |
| 20260901195040 | 68 | 0 | 0.0 | 7.0 | 0.11 | 0.17 | 0.17 | 73 | 1021.2 |
| 20260901194556 | 68 | 0 | 0.0 | 7.0 | 0.13 | 0.17 | 0.17 | 74 | 1021.2 |
| 20260901194041 | 67 | 0 | 0.0 | 12.0 | 0.13 | 0.17 | 0.17 | 76 | 1021.2 |
| 20260901193539 | 67 | 0 | 2.0 | 12.0 | 0.17 | 0.17 | 0.17 | 77 | 1021.2 |
| 20260901193059 | 67 | 63 | 2.0 | 12.0 | 0.17 | 0.17 | 0.17 | 78 | 1021.2 |
| 20260901192540 | 66 | 23 | 3.0 | 6.0 | 0.17 | 0.17 | 0.17 | 79 | 1021.2 |
| 20260901192042 | 65 | 0 | 2.0 | 5.0 | 0.17 | 0.17 | 0.17 | 82 | 1021.2 |
| 20260901191611 | 65 | 0 | 1.0 | 7.0 | 0.17 | 0.17 | 0.17 | 84 | 1021.2 |
| 20260901191039 | 65 | 56 | 2.0 | 8.0 | 0.17 | 0.17 | 0.17 | 81 | 1021.2 |
| 20260901190543 | 65 | 38 | 2.0 | 8.0 | 0.17 | 0.17 | 0.17 | 83 | 1021.2 |
| 20260901190053 | 66 | 331 | 0.0 | 6.0 | 0.15 | 0.15 | 0.15 | 81 | 1021.2 |
| 20260901185538 | 67 | 0 | 2.0 | 6.0 | 0.10 | 0.10 | 0.10 | 79 | 1021.2 |
| 20260901185039 | 68 | 3 | 2.0 | 6.0 | 0.06 | 0.06 | 0.06 | 75 | 1021.2 |
| 20260901184611 | 70 | 1 | 1.0 | 9.0 | 0.04 | 0.04 | 0.04 | 70 | 1021.2 |
| 20260901184039 | 73 | 330 | 2.0 | 9.0 | 0.04 | 0.04 | 0.04 | 65 | 1021.2 |
| 20260901183539 | 76 | 9 | 0.0 | 11.0 | 0.00 | 0.00 | 0.00 | 57 | 1021.2 |
| 20260901183059 | 77 | 350 | 2.0 | 17.0 | 0.00 | 0.00 | 0.00 | 48 | 1021.2 |
| 20260901182539 | 77 | 89 | 4.0 | 17.0 | 0.00 | 0.00 | 0.00 | 46 | 1021.2 |
| 20260901182040 | 79 | 58 | 5.0 | 10.0 | 0.00 | 0.00 | 0.00 | 42 | 1021.2 |
| 20260901181600 | 81 | 66 | 0.0 | 8.0 | 0.00 | 0.00 | 0.00 | 41 | 1021.2 |
| 20260901181040 | 81 | 125 | 1.0 | 8.0 | 0.00 | 0.00 | 0.00 | 41 | 1021.2 |
| 20260901180539 | 82 | 0 | 0.0 | 3.0 | 0.00 | 0.00 | 0.00 | 40 | 1021.2 |
| 20260901175539 | 85 | 0 | 0.0 | 9.0 | 0.00 | 0.00 | 0.00 | 39 | 1021.2 |
| 20260901175040 | 85 | 23 | 1.0 | 9.0 | 0.00 | 0.00 | 0.00 | 40 | 1021.2 |
| 20260901174559 | 85 | 20 | 4.0 | 13.0 | 0.00 | 0.00 | 0.00 | 39 | 1021.2 |
| 20260901174040 | 84 | 268 | 1.0 | 13.0 | 0.00 | 0.00 | 0.00 | 41 | 1021.2 |
| 20260901173540 | 85 | 243 | 3.0 | 11.0 | 0.00 | 0.00 | 0.00 | 40 | 1021.2 |
| 20260901173104 | 84 | 277 | 3.0 | 12.0 | 0.00 | 0.00 | 0.00 | 39 | 1021.2 |
| 20260901172539 | 83 | 188 | 3.0 | 12.0 | 0.00 | 0.00 | 0.00 | 41 | 1021.2 |
| 20260901172039 | 83 | 223 | 1.0 | 8.0 | 0.00 | 0.00 | 0.00 | 42 | 1021.2 |
| 20260901171552 | 82 | 0 | 4.0 | 10.0 | 0.00 | 0.00 | 0.00 | 43 | 1021.2 |
| 20260901171041 | 84 | 68 | 3.0 | 10.0 | 0.00 | 0.00 | 0.00 | 41 | 1021.2 |
| 20260901170542 | 84 | 0 | 0.0 | 7.0 | 0.00 | 0.00 | 0.00 | 41 | 1021.2 |
| 20260901165540 | 83 | 208 | 1.0 | 7.0 | 0.00 | 0.00 | 0.00 | 43 | 1021.2 |
| 20260901165039 | 82 | 0 | 0.0 | 7.0 | 0.00 | 0.00 | 0.00 | 44 | 1021.2 |
| 20260901164606 | 82 | 106 | 0.0 | 7.0 | 0.00 | 0.00 | 0.00 | 44 | 1021.2 |
| 20260901164039 | 81 | 0 | 0.0 | 7.0 | 0.00 | 0.00 | 0.00 | 46 | 1021.2 |
| 20260901163539 | 81 | 125 | 3.0 | 6.0 | 0.00 | 0.00 | 0.00 | 45 | 1021.2 |
| 20260901163055 | 80 | 30 | 0.0 | 6.0 | 0.00 | 0.00 | 0.00 | 47 | 1021.2 |
| 20260901162541 | 79 | 0 | 2.0 | 7.0 | 0.00 | 0.00 | 0.00 | 48 | 1021.2 |
| 20260901162039 | 79 | 0 | 0.0 | 7.0 | 0.00 | 0.00 | 0.00 | 47 | 1021.2 |
| 20260901161615 | 79 | 0 | 1.0 | 7.0 | 0.00 | 0.00 | 0.00 | 47 | 1021.2 |
| 20260901161039 | 79 | 207 | 1.0 | 8.0 | 0.00 | 0.00 | 0.00 | 47 | 1021.2 |
| 20260901160538 | 79 | 261 | 1.0 | 9.0 | 0.00 | 0.00 | 0.00 | 48 | 1021.2 |
| 20260901160114 | 78 | 0 | 2.0 | 9.0 | 0.00 | 0.00 | 0.00 | 49 | 1021.2 |
| 20260901155540 | 79 | 240 | 1.0 | 14.0 | 0.00 | 0.00 | 0.00 | 48 | 1021.2 |
| 20260901155042 | 78 | 0 | 3.0 | 14.0 | 0.00 | 0.00 | 0.00 | 50 | 1021.2 |
| 20260901154559 | 78 | 49 | 1.0 | 9.0 | 0.00 | 0.00 | 0.00 | 49 | 1021.2 |
| 20260901154039 | 79 | 29 | 1.0 | 6.0 | 0.00 | 0.00 | 0.00 | 49 | 1021.2 |
| 20260901153539 | 78 | 0 | 0.0 | 0.0 | 0.00 | 0.00 | 0.00 | 49 | 1021.2 |
| 20260901153113 | 77 | 0 | 0.0 | 0.0 | 0.00 | 0.00 | 0.00 | 50 | 1021.2 |
| 20260901152539 | 77 | 0 | 0.0 | 0.0 | 0.00 | 0.00 | 0.00 | 50 | 1021.2 |
| 20260901152040 | 77 | 0 | 0.0 | 0.0 | 0.00 | 0.00 | 0.00 | 49 | 1021.2 |
| 20260901151602 | 77 | 0 | 0.0 | 7.0 | 0.00 | 0.00 | 0.00 | 50 | 1021.2 |
| 20260901151041 | 76 | 0 | 0.0 | 7.0 | 0.00 | 0.00 | 0.00 | 52 | 1021.2 |
| 20260901150540 | 76 | 154 | 4.0 | 7.0 | 0.00 | 0.00 | 0.00 | 53 | 1021.2 |
| 20260901150054 | 75 | 103 | 2.0 | 9.0 | 0.00 | 0.00 | 0.00 | 53 | 1021.2 |
| 20260901145539 | 75 | 110 | 1.0 | 9.0 | 0.00 | 0.00 | 0.00 | 54 | 1021.2 |
| 20260901145038 | 74 | 122 | 5.0 | 9.0 | 0.00 | 0.00 | 0.00 | 55 | 1021.2 |
| 20260901144557 | 74 | 134 | 4.0 | 8.0 | 0.00 | 0.00 | 0.00 | 54 | 1021.2 |
| 20260901144038 | 74 | 119 | 2.0 | 8.0 | 0.00 | 0.00 | 0.00 | 55 | 1021.2 |
| 20260901143540 | 73 | 0 | 4.0 | 7.0 | 0.00 | 0.00 | 0.00 | 56 | 1021.2 |
| 20260901143122 | 73 | 89 | 4.0 | 9.0 | 0.00 | 0.00 | 0.00 | 55 | 1021.2 |
| 20260901142540 | 73 | 102 | 4.0 | 12.0 | 0.00 | 0.00 | 0.00 | 56 | 1021.2 |
| 20260901142039 | 73 | 138 | 4.0 | 12.0 | 0.00 | 0.00 | 0.00 | 56 | 1021.2 |
| 20260901141553 | 72 | 117 | 6.0 | 12.0 | 0.00 | 0.00 | 0.00 | 57 | 1021.2 |
| 20260901141039 | 72 | 139 | 5.0 | 12.0 | 0.00 | 0.00 | 0.00 | 57 | 1021.2 |
| 20260901140539 | 72 | 127 | 5.0 | 10.0 | 0.00 | 0.00 | 0.00 | 57 | 1021.2 |
| 20260901140055 | 72 | 121 | 5.0 | 9.0 | 0.00 | 0.00 | 0.00 | 57 | 1021.2 |
| 20260901135539 | 72 | 103 | 4.0 | 9.0 | 0.00 | 0.00 | 0.00 | 58 | 1021.2 |
| 20260901135039 | 71 | 94 | 4.0 | 9.0 | 0.00 | 0.00 | 0.00 | 58 | 1021.2 |
| 20260901134600 | 71 | 0 | 4.0 | 9.0 | 0.00 | 0.00 | 0.00 | 60 | 1021.2 |
| 20260901134038 | 70 | 0 | 2.0 | 9.0 | 0.00 | 0.00 | 0.00 | 61 | 1021.2 |
| 20260901133538 | 69 | 54 | 2.0 | 9.0 | 0.00 | 0.00 | 0.00 | 62 | 1021.2 |
| 20260901133055 | 68 | 319 | 2.0 | 8.0 | 0.00 | 0.00 | 0.00 | 63 | 1021.2 |
| 20260901132539 | 68 | 0 | 3.0 | 8.0 | 0.00 | 0.00 | 0.00 | 63 | 1021.2 |
| 20260901132040 | 68 | 341 | 1.0 | 5.0 | 0.00 | 0.00 | 0.00 | 64 | 1021.2 |
| 20260901131555 | 68 | 0 | 2.0 | 8.0 | 0.00 | 0.00 | 0.00 | 64 | 1021.2 |
| 20260901131040 | 68 | 79 | 3.0 | 8.0 | 0.00 | 0.00 | 0.00 | 64 | 1021.2 |
| 20260901130539 | 68 | 127 | 4.0 | 8.0 | 0.00 | 0.00 | 0.00 | 63 | 1021.2 |
| 20260901125540 | 67 | 104 | 2.0 | 5.0 | 0.00 | 0.00 | 0.00 | 64 | 1021.2 |
| 20260901125039 | 67 | 129 | 1.0 | 7.0 | 0.00 | 0.00 | 0.00 | 65 | 1021.2 |
| 20260901124557 | 67 | 0 | 3.0 | 7.0 | 0.00 | 0.00 | 0.00 | 65 | 1021.2 |
| 20260901124041 | 67 | 0 | 1.0 | 5.0 | 0.00 | 0.00 | 0.00 | 65 | 1021.2 |
| 20260901123539 | 67 | 89 | 2.0 | 5.0 | 0.00 | 0.00 | 0.00 | 65 | 1021.2 |
| 20260901123113 | 66 | 0 | 0.0 | 0.0 | 0.00 | 0.00 | 0.00 | 64 | 1021.2 |
| 20260901122539 | 67 | 0 | 0.0 | 5.0 | 0.00 | 0.00 | 0.00 | 64 | 1021.2 |
| 20260901122039 | 68 | 0 | 0.0 | 9.0 | 0.00 | 0.00 | 0.00 | 63 | 1021.2 |
| 20260901121551 | 68 | 128 | 4.0 | 9.0 | 0.00 | 0.00 | 0.00 | 63 | 1021.2 |
| 20260901121039 | 66 | 108 | 0.0 | 1.0 | 0.00 | 0.00 | 0.00 | 66 | 1021.2 |
| 20260901120539 | 65 | 0 | 0.0 | 0.0 | 0.00 | 0.00 | 0.00 | 66 | 1021.2 |
| 20260901120104 | 66 | 0 | 0.0 | 0.0 | 0.00 | 0.00 | 0.00 | 64 | 1021.2 |
| 20260901115538 | 67 | 0 | 0.0 | 0.0 | 0.00 | 0.00 | 0.00 | 62 | 1021.2 |
| 20260901115040 | 68 | 0 | 0.0 | 3.0 | 0.00 | 0.00 | 0.00 | 62 | 1021.2 |
| 20260901114556 | 68 | 0 | 0.0 | 3.0 | 0.00 | 0.00 | 0.00 | 62 | 1021.2 |
| 20260901114039 | 68 | 0 | 0.0 | 3.0 | 0.00 | 0.00 | 0.00 | 62 | 1021.2 |
| 20260901113539 | 68 | 0 | 0.0 | 2.0 | 0.00 | 0.00 | 0.00 | 62 | 1021.2 |
| 20260901113056 | 68 | 0 | 0.0 | 2.0 | 0.00 | 0.00 | 0.00 | 63 | 1021.2 |
| 20260901112538 | 67 | 0 | 0.0 | 2.0 | 0.00 | 0.00 | 0.00 | 63 | 1021.2 |
| 20260901112039 | 67 | 0 | 0.0 | 1.0 | 0.00 | 0.00 | 0.00 | 63 | 1021.2 |
| 20260901111606 | 68 | 0 | 0.0 | 0.0 | 0.00 | 0.00 | 0.00 | 62 | 1021.2 |
| 20260901111039 | 69 | 0 | 0.0 | 0.0 | 0.00 | 0.00 | 0.00 | 61 | 1021.2 |
| 20260901110539 | 69 | 0 | 0.0 | 4.0 | 0.00 | 0.00 | 0.00 | 61 | 1021.2 |
| 20260901110108 | 69 | 0 | 1.0 | 4.0 | 0.00 | 0.00 | 0.00 | 60 | 1021.2 |
| 20260901105539 | 69 | 349 | 0.0 | 6.0 | 0.00 | 0.00 | 0.00 | 60 | 1021.2 |
| 20260901105043 | 70 | 297 | 1.0 | 10.0 | 0.00 | 0.00 | 0.00 | 59 | 1021.2 |
| 20260901104555 | 70 | 199 | 1.0 | 14.0 | 0.00 | 0.00 | 0.00 | 59 | 1021.2 |
| 20260901104040 | 70 | 305 | 3.0 | 17.0 | 0.00 | 0.00 | 0.00 | 59 | 1021.2 |
| 20260901103539 | 71 | 216 | 5.0 | 17.0 | 0.00 | 0.00 | 0.00 | 58 | 1021.2 |
| 20260901103101 | 71 | 249 | 5.0 | 18.0 | 0.00 | 0.00 | 0.00 | 58 | 1021.2 |
| 20260901102539 | 71 | 91 | 5.0 | 18.0 | 0.00 | 0.00 | 0.00 | 58 | 1021.2 |
| 20260901102039 | 71 | 0 | 2.0 | 18.0 | 0.00 | 0.00 | 0.00 | 57 | 1021.2 |
| 20260901101556 | 71 | 0 | 5.0 | 15.0 | 0.00 | 0.00 | 0.00 | 57 | 1021.2 |
| 20260901101039 | 71 | 40 | 5.0 | 15.0 | 0.00 | 0.00 | 0.00 | 57 | 1021.2 |
| 20260901100539 | 71 | 129 | 6.0 | 15.0 | 0.00 | 0.00 | 0.00 | 57 | 1021.2 |
| 20260901100057 | 71 | 293 | 2.0 | 13.0 | 0.00 | 0.00 | 0.00 | 58 | 1021.2 |
| 20260901095539 | 71 | 255 | 2.0 | 16.0 | 0.00 | 0.00 | 0.00 | 57 | 1021.2 |
| 20260901095041 | 71 | 82 | 6.0 | 16.0 | 0.00 | 0.00 | 0.00 | 58 | 1021.2 |
| 20260901094550 | 71 | 193 | 6.0 | 14.0 | 0.00 | 0.00 | 0.00 | 58 | 1021.2 |
| 20260901094039 | 70 | 158 | 5.0 | 14.0 | 0.00 | 0.00 | 0.00 | 59 | 1021.2 |
| 20260901093538 | 70 | 237 | 4.0 | 13.0 | 0.00 | 0.00 | 0.00 | 60 | 1021.2 |
| 20260901093052 | 69 | 0 | 0.0 | 0.0 | 0.00 | 0.00 | 0.00 | 63 | 1021.2 |
| 20260901092538 | 69 | 0 | 0.0 | 0.0 | 0.00 | 0.00 | 0.00 | 62 | 1021.2 |
| 20260901092039 | 68 | 0 | 0.0 | 0.0 | 0.00 | 0.00 | 0.00 | 64 | 1021.2 |
| 20260901091558 | 67 | 0 | 0.0 | 0.0 | 0.00 | 0.00 | 0.00 | 67 | 1021.2 |
| 20260901091038 | 67 | 0 | 0.0 | 0.0 | 0.00 | 0.00 | 0.00 | 67 | 1021.2 |
| 20260901090540 | 68 | 0 | 0.0 | 0.0 | 0.00 | 0.00 | 0.00 | 66 | 1021.2 |
| 20260901090100 | 68 | 0 | 0.0 | 0.0 | 0.00 | 0.00 | 0.00 | 66 | 1021.2 |
| 20260901085539 | 67 | 0 | 0.0 | 0.0 | 0.00 | 0.00 | 0.00 | 67 | 1021.2 |
| 20260901085038 | 67 | 0 | 0.0 | 0.0 | 0.00 | 0.00 | 0.00 | 67 | 1021.2 |
| 20260901084554 | 68 | 0 | 0.0 | 0.0 | 0.00 | 0.00 | 0.00 | 65 | 1021.2 |
| 20260901084038 | 69 | 0 | 0.0 | 5.0 | 0.00 | 0.00 | 0.00 | 64 | 1021.2 |
| 20260901083539 | 69 | 0 | 0.0 | 5.0 | 0.00 | 0.00 | 0.00 | 64 | 1021.2 |
| 20260901083101 | 69 | 8 | 1.0 | 5.0 | 0.00 | 0.00 | 0.00 | 64 | 1021.2 |
| 20260901082538 | 69 | 0 | 0.0 | 6.0 | 0.00 | 0.00 | 0.00 | 64 | 1021.2 |
| 20260901082039 | 69 | 0 | 0.0 | 6.0 | 0.00 | 0.00 | 0.00 | 64 | 1021.2 |
| 20260901081559 | 69 | 0 | 0.0 | 6.0 | 0.00 | 0.00 | 0.00 | 64 | 1021.2 |
| 20260901081039 | 69 | 0 | 0.0 | 5.0 | 0.00 | 0.00 | 0.00 | 64 | 1021.2 |
| 20260901080539 | 69 | 347 | 0.0 | 5.0 | 0.00 | 0.00 | 0.00 | 64 | 1021.2 |
| 20260901080106 | 70 | 317 | 0.0 | 6.0 | 0.00 | 0.00 | 0.00 | 62 | 1021.2 |
| 20260901075539 | 70 | 0 | 0.0 | 12.0 | 0.00 | 0.00 | 0.00 | 62 | 1021.2 |
| 20260901075039 | 70 | 0 | 0.0 | 12.0 | 0.00 | 0.00 | 0.00 | 62 | 1021.2 |
| 20260901074559 | 70 | 58 | 2.0 | 6.0 | 0.00 | 0.00 | 0.00 | 62 | 1021.2 |
| 20260901074041 | 70 | 346 | 1.0 | 6.0 | 0.00 | 0.00 | 0.00 | 62 | 1021.2 |
| 20260901073540 | 70 | 63 | 1.0 | 8.0 | 0.00 | 0.00 | 0.00 | 62 | 1021.2 |
| 20260901073100 | 70 | 333 | 1.0 | 9.0 | 0.00 | 0.00 | 0.00 | 62 | 1021.2 |
| 20260901072541 | 71 | 72 | 2.0 | 11.0 | 0.00 | 0.00 | 0.00 | 62 | 1021.2 |
| 20260901072042 | 71 | 75 | 6.0 | 14.0 | 0.00 | 0.00 | 0.00 | 61 | 1021.2 |
| 20260901071558 | 71 | 0 | 3.0 | 15.0 | 0.00 | 0.00 | 0.00 | 61 | 1021.2 |
| 20260901071039 | 71 | 41 | 5.0 | 18.0 | 0.00 | 0.00 | 0.00 | 61 | 1021.2 |
| 20260901070540 | 71 | 87 | 2.0 | 18.0 | 0.00 | 0.00 | 0.00 | 61 | 1021.2 |
| 20260901070100 | 71 | 321 | 7.0 | 18.0 | 0.00 | 0.00 | 0.00 | 61 | 1021.2 |
| 20260901065539 | 71 | 60 | 4.0 | 12.0 | 0.00 | 0.00 | 0.00 | 61 | 1021.2 |
| 20260901065040 | 71 | 94 | 4.0 | 14.0 | 0.00 | 0.00 | 0.00 | 61 | 1021.2 |
| 20260901064602 | 71 | 171 | 3.0 | 14.0 | 0.00 | 0.00 | 0.00 | 61 | 1021.2 |
| 20260901064043 | 71 | 91 | 3.0 | 14.0 | 0.00 | 0.00 | 0.00 | 61 | 1021.2 |
| 20260901063539 | 71 | 309 | 2.0 | 16.0 | 0.00 | 0.00 | 0.00 | 61 | 1021.2 |
| 20260901063110 | 71 | 150 | 4.0 | 16.0 | 0.00 | 0.00 | 0.00 | 61 | 1021.2 |
| 20260901062539 | 71 | 106 | 6.0 | 19.0 | 0.00 | 0.00 | 0.00 | 61 | 1021.2 |
| 20260901062039 | 71 | 145 | 4.0 | 19.0 | 0.00 | 0.00 | 0.00 | 61 | 1021.2 |
| 20260901061624 | 71 | 45 | 2.0 | 14.0 | 0.00 | 0.00 | 0.00 | 61 | 1021.2 |
| 20260901061039 | 71 | 155 | 6.0 | 14.0 | 0.00 | 0.00 | 0.00 | 61 | 1021.2 |
| 20260901060541 | 71 | 118 | 3.0 | 11.0 | 0.00 | 0.00 | 0.00 | 62 | 1021.2 |
| 20260901060107 | 71 | 92 | 4.0 | 11.0 | 0.00 | 0.00 | 0.00 | 62 | 1021.2 |
| 20260901055540 | 71 | 64 | 6.0 | 11.0 | 0.00 | 0.00 | 0.00 | 62 | 1021.2 |
| 20260901055040 | 71 | 135 | 4.0 | 10.0 | 0.00 | 0.00 | 0.00 | 63 | 1021.2 |
| 20260901054559 | 71 | 126 | 4.0 | 11.0 | 0.00 | 0.00 | 0.00 | 63 | 1021.2 |
| 20260901054040 | 71 | 98 | 4.0 | 11.0 | 0.00 | 0.00 | 0.00 | 63 | 1021.2 |
| 20260901053543 | 71 | 131 | 5.0 | 14.0 | 0.00 | 0.00 | 0.00 | 63 | 1021.2 |
| 20260901053107 | 71 | 134 | 5.0 | 14.0 | 0.00 | 0.00 | 0.00 | 63 | 1021.2 |
| 20260901052540 | 71 | 249 | 0.0 | 5.0 | 0.00 | 0.00 | 0.00 | 64 | 1021.2 |
| 20260901052039 | 71 | 0 | 2.0 | 12.0 | 0.00 | 0.00 | 0.00 | 63 | 1021.2 |
| 20260901051558 | 71 | 0 | 4.0 | 15.0 | 0.00 | 0.00 | 0.00 | 63 | 1021.2 |
| 20260901051040 | 71 | 264 | 4.0 | 15.0 | 0.00 | 0.00 | 0.00 | 63 | 1021.2 |
| 20260901050540 | 71 | 176 | 8.0 | 15.0 | 0.00 | 0.00 | 0.00 | 63 | 1021.2 |
| 20260901050100 | 71 | 0 | 3.0 | 11.0 | 0.00 | 0.00 | 0.00 | 63 | 1021.2 |
| 20260901045539 | 71 | 87 | 1.0 | 9.0 | 0.00 | 0.00 | 0.00 | 63 | 1021.2 |
| 20260901045040 | 71 | 79 | 2.0 | 9.0 | 0.00 | 0.00 | 0.00 | 63 | 1021.2 |
| 20260901044606 | 71 | 139 | 2.0 | 11.0 | 0.00 | 0.00 | 0.00 | 64 | 1021.2 |
| 20260901044040 | 71 | 105 | 2.0 | 12.0 | 0.00 | 0.00 | 0.00 | 64 | 1021.2 |
| 20260901043540 | 70 | 207 | 4.0 | 12.0 | 0.00 | 0.00 | 0.00 | 65 | 1021.2 |
| 20260901043059 | 70 | 217 | 4.0 | 12.0 | 0.00 | 0.00 | 0.00 | 66 | 1021.2 |
| 20260901042540 | 69 | 254 | 0.0 | 3.0 | 0.00 | 0.00 | 0.00 | 67 | 1021.2 |
| 20260901042039 | 68 | 0 | 0.0 | 2.0 | 0.00 | 0.00 | 0.00 | 70 | 1021.2 |
| 20260901041600 | 67 | 0 | 0.0 | 2.0 | 0.00 | 0.00 | 0.00 | 73 | 1021.2 |
| 20260901041041 | 66 | 0 | 0.0 | 0.0 | 0.00 | 0.00 | 0.00 | 78 | 1021.2 |
| 20260901040539 | 65 | 0 | 0.0 | 0.0 | 0.00 | 0.00 | 0.00 | 79 | 1021.2 |
| 20260901035539 | 66 | 0 | 0.0 | 0.0 | 0.00 | 0.00 | 0.00 | 79 | 1021.2 |
| 20260901035039 | 66 | 0 | 0.0 | 0.0 | 0.00 | 0.00 | 0.00 | 78 | 1021.2 |
| 20260901034602 | 66 | 0 | 0.0 | 0.0 | 0.00 | 0.00 | 0.00 | 79 | 1021.2 |
| 20260901034041 | 66 | 0 | 0.0 | 0.0 | 0.00 | 0.00 | 0.00 | 77 | 1021.2 |
| 20260901033539 | 66 | 0 | 0.0 | 0.0 | 0.00 | 0.00 | 0.00 | 76 | 1021.2 |
| 20260901033100 | 67 | 0 | 0.0 | 0.0 | 0.00 | 0.00 | 0.00 | 75 | 1021.2 |
| 20260901032542 | 67 | 0 | 0.0 | 0.0 | 0.00 | 0.00 | 0.00 | 75 | 1021.2 |
| 20260901032041 | 67 | 0 | 0.0 | 0.0 | 0.00 | 0.00 | 0.00 | 74 | 1021.2 |
| 20260901031559 | 67 | 0 | 0.0 | 0.0 | 0.00 | 0.00 | 0.00 | 73 | 1021.2 |
| 20260901031039 | 67 | 0 | 0.0 | 4.0 | 0.00 | 0.00 | 0.00 | 73 | 1021.2 |
| 20260901030542 | 67 | 0 | 1.0 | 5.0 | 0.00 | 0.00 | 0.00 | 73 | 1021.2 |
| 20260901030103 | 67 | 149 | 2.0 | 6.0 | 0.00 | 0.00 | 0.00 | 73 | 1021.2 |
| 20260901025540 | 67 | 130 | 2.0 | 6.0 | 0.00 | 0.00 | 0.00 | 73 | 1021.2 |
| 20260901025040 | 67 | 125 | 2.0 | 7.0 | 0.00 | 0.00 | 0.00 | 72 | 1021.2 |
| 20260901024600 | 67 | 0 | 2.0 | 7.0 | 0.00 | 0.00 | 0.00 | 73 | 1021.2 |
| 20260901024040 | 66 | 77 | 2.0 | 6.0 | 0.00 | 0.00 | 0.00 | 74 | 1021.2 |
| 20260901023540 | 66 | 78 | 2.0 | 6.0 | 0.00 | 0.00 | 0.00 | 75 | 1021.2 |
| 20260901023055 | 67 | 63 | 3.0 | 9.0 | 0.00 | 0.00 | 0.00 | 75 | 1021.2 |
| 20260901022540 | 67 | 66 | 2.0 | 9.0 | 0.00 | 0.00 | 0.00 | 72 | 1021.2 |
| 20260901022046 | 68 | 69 | 3.0 | 8.0 | 0.00 | 0.00 | 0.00 | 70 | 1021.2 |
| 20260901021626 | 68 | 60 | 2.0 | 8.0 | 0.00 | 0.00 | 0.00 | 69 | 1021.2 |
| 20260901021040 | 69 | 0 | 0.0 | 6.0 | 0.00 | 0.00 | 0.00 | 69 | 1021.2 |
| 20260901020539 | 69 | 79 | 2.0 | 7.0 | 0.00 | 0.00 | 0.00 | 67 | 1021.2 |
| 20260901020120 | 69 | 61 | 0.0 | 11.0 | 0.00 | 0.00 | 0.00 | 65 | 1021.2 |
| 20260901015541 | 69 | 101 | 4.0 | 11.0 | 0.00 | 0.00 | 0.00 | 68 | 1021.2 |
| 20260901015039 | 68 | 0 | 0.0 | 0.0 | 0.00 | 0.00 | 0.00 | 71 | 1021.2 |
| 20260901014559 | 68 | 0 | 0.0 | 0.0 | 0.00 | 0.00 | 0.00 | 71 | 1021.2 |
| 20260901014040 | 69 | 0 | 0.0 | 0.0 | 0.00 | 0.00 | 0.00 | 69 | 1021.2 |
| 20260901013541 | 69 | 0 | 0.0 | 0.0 | 0.00 | 0.00 | 0.00 | 68 | 1021.2 |
| 20260901013105 | 71 | 0 | 0.0 | 0.0 | 0.00 | 0.00 | 0.00 | 66 | 1021.2 |
| 20260901012539 | 73 | 0 | 0.0 | 6.0 | 0.00 | 0.00 | 0.00 | 56 | 1021.2 |
| 20260901012040 | 74 | 0 | 1.0 | 6.0 | 0.00 | 0.00 | 0.00 | 51 | 1021.2 |
| 20260901011608 | 75 | 71 | 1.0 | 6.0 | 0.00 | 0.00 | 0.00 | 49 | 1021.2 |
| 20260901011039 | 75 | 0 | 0.0 | 0.0 | 0.00 | 0.00 | 0.00 | 48 | 1021.2 |
| 20260901010540 | 75 | 0 | 0.0 | 0.0 | 0.00 | 0.00 | 0.00 | 48 | 1021.2 |
| 20260901010106 | 75 | 0 | 0.0 | 5.0 | 0.00 | 0.00 | 0.00 | 48 | 1021.2 |
| 20260901005541 | 75 | 0 | 1.0 | 5.0 | 0.00 | 0.00 | 0.00 | 49 | 1021.2 |
| 20260901005043 | 74 | 98 | 0.0 | 6.0 | 0.00 | 0.00 | 0.00 | 50 | 1021.2 |
| 20260901004609 | 74 | 0 | 1.0 | 6.0 | 0.00 | 0.00 | 0.00 | 51 | 1021.2 |
| 20260901004040 | 75 | 116 | 1.0 | 7.0 | 0.00 | 0.00 | 0.00 | 51 | 1021.2 |
| 20260901003542 | 75 | 108 | 4.0 | 7.0 | 0.00 | 0.00 | 0.00 | 50 | 1021.2 |
| 20260901003103 | 76 | 96 | 2.0 | 7.0 | 0.00 | 0.00 | 0.00 | 49 | 1021.2 |
| 20260901002540 | 76 | 0 | 0.0 | 6.0 | 0.00 | 0.00 | 0.00 | 48 | 1021.2 |
| 20260901002040 | 76 | 60 | 1.0 | 6.0 | 0.00 | 0.00 | 0.00 | 49 | 1021.2 |
| 20260901001600 | 76 | 0 | 1.0 | 6.0 | 0.00 | 0.00 | 0.00 | 50 | 1021.2 |
| 20260901001043 | 76 | 49 | 2.0 | 7.0 | 0.00 | 0.00 | 0.00 | 51 | 1021.2 |